Regional Weather Roundup
Issued by NWS Green Bay, WI

Home | Current Version | Previous Version | Graphics & Text | Print | Product List | Glossary Off
Versions: 1 2 3 4 5 6 7 8 9 10 11 12 13 14 15 16 17 18 19 20 21 22 23 24 25 26 27 28 29 30 31 32 33 34 35 36 37 38 39 40 41 42 43 44 45 46 47 48 49 50

000
ASUS43 KGRB 180611
RWRGRB

NORTH-CENTRAL AND NORTHEAST WISCONSIN REGIONAL WEATHER ROUNDUP
NATIONAL WEATHER SERVICE GREEN BAY WI
1200 AM CST WED JAN 18 2017

WIZ005-009-010>012-018-019-180700-
NORTH CENTRAL WISCONSIN

CITY           SKY/WX    TMP DP  RH WIND       PRES   REMARKS
IRONWOOD       CLOUDY    30  25  81 SW9       29.88F
MANITOWISH WTR   N/A     12  12  98 CALM      29.89S FOG
ARBOR VITAE    CLOUDY    19  17  93 CALM      29.90S
EAGLE RIVER    CLOUDY    18  18  98 CALM      29.88F
LAND O LAKES   CLOUDY    14  12  92 CALM      29.89F
RHINELANDER    CLOUDY    24  22  91 SW5       29.90S
PHILLIPS       CLOUDY   N/A N/A N/A CALM      29.92R
ANTIGO         FOG       24  24 100 CALM      29.92S VSB 1/4
TOMAHAWK       CLOUDY    27  26  96 CALM      29.92F
MERRILL        FOG       25  25 100 CALM        N/A  VSB 1/4
$$

WIZ013-073-180700-
NORTHEAST WISCONSIN

CITY           SKY/WX    TMP DP  RH WIND       PRES   REMARKS
IRON MOUNTAIN  CLOUDY    19  15  84 CALM      29.89R FOG
MARINETTE      NOT AVBL
OCONTO         CLOUDY    32  32  99 CALM      29.94S VSB 1/2
$$

WIZ017-030-035>037-045-180700-
CENTRAL WISCONSIN

CITY           SKY/WX    TMP DP  RH WIND       PRES   REMARKS
MEDFORD        FOG       27  26  98 SW5       29.93F VSB 1/4
WAUSAU         FOG       29  29 100 CALM      29.93R VSB 1
MOSINEE        FOG       28  28 100 SW6       29.96R VSB 1
MARSHFIELD     FOG       30  29  96 W10       29.94F VSB 3/4
WISC RAPIDS    FOG       32  32 100 W8        29.98F VSB 3/4
STEVENS POINT  FOG       30  30 100 W8        29.97R VSB 3/4
WAUPACA        PTCLDY    36  34  94 CALM      29.96F FOG
SHAWANO          N/A     33  32  96 CALM      29.95S FOG
CLINTONVILLE   CLEAR     32  32 100 CALM      29.94F FOG
WAUTOMA        CLOUDY    33  33 100 W9        29.98S FOG
$$

WIZ038-039-048-051-180700-
FOX VALLEY

CITY           SKY/WX    TMP DP  RH WIND       PRES   REMARKS
NWS GREEN BAY  CLOUDY    35  35 100 SW5       29.95S FOG
APPLETON       FOG       32  32 100 W8        29.94S VSB 1/4
OSHKOSH        CLOUDY    34  33  96 W5        29.95F FOG
FOND DU LAC    CLOUDY    34  32  92 W3        29.97R FOG
$$

WIZ022-050-052-180700-
EAST CENTRAL WISCONSIN

CITY           SKY/WX    TMP DP  RH WIND       PRES   REMARKS
EPHRAIM        FOG       32  32 100 CALM      29.92S VSB 1/4
WASHINGTON ISL CLOUDY    32  32 100 W3        29.92S FOG
STURGEON BAY   FOG       33  32  96 W3        29.94S VSB 1/4
MANITOWOC      CLOUDY    34  33  96 W6        29.95S FOG
SHEBOYGAN      CLOUDY    34  32  92 NW7       29.95S
$$

LMZ563-521-522-541>543-180700-
LAKESHORE

STATION/POSITION TIME  TEMP    WIND        PRES    VSBY  WAVE
                       AIR SEA DIR/SP/G                  HT/PER
                 (UTC) (F)     (DEG/KT/KT) (MB)    (MI)  (FT/S)
SHEBOYGAN LKSHOR 0600   34     300/  6/  7 1014.6F
KEWAUNEE LKSHORE 0542   33     290/  4/  7 1013.5R
NORTHPORT PIER   0600   33      CALM  /  3 1013.5
SISTER BAY LKSHO 0520   32        CALM       N/A
MENOMINEE LKSHOR 0536          210/  4/  5 1013.0R
$$




USA.gov is the U.S. government's official web portal to all federal, state and local government web resources and services.